Location: Ceske Budejovice
(48.9830°N, 14.4670°E)
Time: 04:33:28
(UTC+02:00)

ISS - Visible Passes

Search period start: 01 July 2022 00:00
Search period end: 11 July 2022 00:00
Orbit: 414 x 420 km, 51.6° (Epoch: 30 June)

Date Brightness Start Highest point End Pass type
(mag) Time Alt. Az. Time Alt. Az. Time Alt. Az.
01 Jul -2.7 03:22:08 19° SSW 03:23:55 32° SE 03:26:58 10° E visible
02 Jul -2.3 02:35:35 22° SSE 02:35:52 22° SE 02:38:32 10° E visible
02 Jul -3.7 04:08:57 10° WSW 04:12:19 90° N 04:15:42 10° ENE visible
03 Jul -1.4 01:48:57 13° ESE 01:48:57 13° ESE 01:49:48 10° ESE visible
03 Jul -3.8 03:21:51 19° SW 03:24:07 67° SSE 03:27:29 10° ENE visible
04 Jul -3.4 02:35:10 37° SSW 02:35:58 46° SSE 02:39:13 10° ENE visible
04 Jul -3.2 04:09:23 10° W 04:12:42 60° NNW 04:16:04 10° ENE visible
05 Jul -2.6 01:48:26 29° ESE 01:48:26 29° ESE 01:50:52 10° E visible
05 Jul -3.6 03:21:19 12° W 03:24:26 72° NNW 03:27:49 10° ENE visible
06 Jul -1.4 01:01:38 14° E 01:01:38 14° E 01:02:22 10° E visible
06 Jul -3.9 02:34:31 28° WSW 02:36:10 88° SSE 02:39:33 10° ENE visible
06 Jul -2.9 04:09:49 10° W 04:13:07 51° N 04:16:26 10° ENE visible
07 Jul -3.9 01:47:38 60° S 01:47:56 64° SSE 01:51:17 10° ENE visible
07 Jul -3.0 03:21:29 10° W 03:24:47 54° N 03:28:06 10° ENE visible
08 Jul -2.8 01:00:40 33° ESE 01:00:40 33° ESE 01:02:56 10° ENE visible
08 Jul -3.3 02:33:33 13° W 02:36:26 61° N 02:39:47 10° ENE visible
08 Jul -3.0 04:10:08 10° WNW 04:13:27 57° N 04:16:47 10° E visible
09 Jul -1.7 00:13:35 16° E 00:13:35 16° E 00:14:31 10° E visible
09 Jul -3.6 01:46:26 27° W 01:48:06 74° NNW 01:51:29 10° ENE visible
09 Jul -2.9 03:21:48 10° WNW 03:25:05 52° N 03:28:24 10° E visible
10 Jul -3.9 00:59:06 54° WSW 00:59:47 85° SSE 01:03:10 10° ENE visible
10 Jul -2.9 02:33:25 10° W 02:36:43 51° N 02:40:01 10° ENE visible
10 Jul -3.6 04:10:18 10° WNW 04:13:41 82° NNE 04:17:03 10° ESE visible
